Location: D�rnast
(49.6426°N, 11.9755°E)
Time: 02:11:52
(UTC+00:00)

Cosmos 1606 Rocket - Pass Details

Date: 24 January 2021
Orbit: 604 x 631 km, 82.5° (Epoch: 24 February)

Event Time Altitude Azimuth Distance (km) Brightness Sun altitude
Rises 16:19:06 0° 350° (N) 2,896 6.8 -4.4°
Reaches altitude 10° 16:21:20 10° 351° (N) 1,990 6.0 -4.7°
Maximum altitude 16:25:45 84° 81° (E) 630 3.6 -5.4°
Drops below altitude 10° 16:30:10 10° 169° (S) 1,991 6.3 -6.0°
Sets 16:32:24 0° 170° (S) 2,897 7.2 -6.4°
